Georgetown, DE

4:06 PM EDT on April 20, 2018 (GMT -0400)
Sussex County

Weather History for KGED - March, 2013

Change the Weather History Date:

Sunday, March 3, 2013

  Actual Average Record
Temperature  
Mean Temperature 35 °F 41 °F  
Max Temperature 40 °F 50 °F 76 °F (1972)
Min Temperature 29 °F 31 °F 9 °F (2009)
Degree Days  
Heating Degree Days 30 24  
Month to date heating degree days 84 73  
Since 1 July heating degree days 3064 3353  
Cooling Degree Days 0 0  
Month to date cooling degree days 0 0  
Year to date cooling degree days 0 0  
Moisture  
Dew Point 19 °F    
Average Humidity 57    
Maximum Humidity 69    
Minimum Humidity 44    
Precipitation  
Precipitation T in 0.10 in 0.90 in (1954)
Month to date precipitation T 0.30  
Year to date precipitation 4.97 6.01  
Sea Level Pressure  
Sea Level Pressure 29.81 in    
Wind  
Wind Speed 7 mph (WNW)    
Max Wind Speed 16 mph    
Max Gust Speed 26 mph    
Visibility 10 miles    
Events      
T = Trace of Precipitation, MM = Missing Value Source: NWS Daily Summary

Daily Weather History Graph

Daily Weather History Graph

Search for Another Location

Airport or City:

Astronomy

Mar. 03, 2013 Rise Set
Actual Time 6:30 AM EST 5:56 PM EST
Civil Twilight 6:03 AM EST 6:23 PM EST
Nautical Twilight 5:33 AM EST 6:54 PM EST
Astronomical Twilight 5:02 AM EST 7:24 PM EST
Moon No Moon Rise 9:47 AM EST (3/3)
Length of Visible Light 12h 19m
Length of Day
11h 26m
Waning Gibbous, 64% of the Moon is Illuminated
Mar 3
Waning Gibbous
Mar 4
Last Quarter
Mar 11
New
Mar 19
First Quarter
Mar 27
Full

Hourly Weather History & Observations

Time (EST) Temp. Windchill Dew Point Humidity Pressure Visibility Wind Dir Wind Speed Gust Speed Precip Events Conditions
12:54 AM 34.0 °F 27.2 °F 21.9 °F 61% 29.81 in 10.0 mi WNW 8.1 mph - N/A   Overcast
1:54 AM 33.1 °F 26.9 °F 21.9 °F 64% 29.81 in 10.0 mi WNW 6.9 mph - N/A   Overcast
2:54 AM 32.0 °F 27.5 °F 21.0 °F 64% 29.79 in 10.0 mi WNW 4.6 mph - N/A   Partly Cloudy
3:54 AM 30.0 °F 26.5 °F 21.0 °F 69% 29.80 in 10.0 mi WNW 3.5 mph - N/A   Clear
4:54 AM 30.0 °F 26.5 °F 21.0 °F 69% 29.80 in 10.0 mi WNW 3.5 mph - N/A   Clear
5:54 AM 30.0 °F 26.5 °F 21.0 °F 69% 29.81 in 10.0 mi West 3.5 mph - N/A   Clear
9:54 AM 35.1 °F 28.6 °F 17.1 °F 48% 29.82 in 10.0 mi NW 8.1 mph - N/A   Overcast
10:54 AM 35.1 °F 27.4 °F 16.0 °F 46% 29.82 in 10.0 mi NW 10.4 mph 21.9 mph N/A   Overcast
11:54 AM 36.0 °F 28.5 °F 17.1 °F 46% 29.81 in 10.0 mi WNW 10.4 mph 18.4 mph N/A   Overcast
12:54 PM 36.0 °F 28.0 °F 21.0 °F 55% 29.79 in 10.0 mi WNW 11.5 mph 18.4 mph N/A   Overcast
1:54 PM 37.9 °F 30.0 °F 19.9 °F 48% 29.77 in 10.0 mi West 12.7 mph 20.7 mph 0.00 in   Mostly Cloudy
2:54 PM 39.0 °F 31.8 °F 19.0 °F 45% 29.77 in 10.0 mi WNW 11.5 mph 21.9 mph N/A   Overcast
3:54 PM 37.9 °F 30.9 °F 19.0 °F 47% 29.77 in 10.0 mi WNW 10.4 mph 16.1 mph N/A   Mostly Cloudy
4:54 PM 37.9 °F 30.9 °F 19.0 °F 47% 29.77 in 10.0 mi NW 10.4 mph 17.3 mph N/A   Overcast
6:54 PM 37.9 °F 32.7 °F 19.9 °F 48% 29.81 in 10.0 mi NW 6.9 mph - N/A   Overcast
7:54 PM 37.0 °F 33.3 °F 19.0 °F 48% 29.83 in 10.0 mi WNW 4.6 mph - N/A   Overcast
8:54 PM 37.0 °F 29.8 °F 19.0 °F 48% 29.84 in 10.0 mi NW 10.4 mph 18.4 mph N/A   Overcast
10:54 PM 34.0 °F 28.0 °F 18.0 °F 52% 29.86 in 10.0 mi WNW 6.9 mph - N/A   Clear
11:54 PM 35.1 °F 27.9 °F 18.0 °F 50% 29.86 in 10.0 mi West 9.2 mph - N/A   Overcast